Theta_e
333 336 340 344 344 343 343 345 349 348 348 349 350 350 351 348 349 349 346 345 342 340
331 333 338 343 345 344 345 343 336 338 332 341 345 347 348 347 346 347 345 343 341 337
328 333 336 340 341 342 344 336 327 331 324 322 342 343 345 345 345 344 342 341 340 340
326 328 330 334 338 340 324 318 319 322 326 324 333 339 340 342 344 342 342 341 339 339
324 325 327 329 333 324 321 318 319 327 323 321 328 331 335 339 342 341 340 340 340 340
323 323 323 327 330 322 324 317 319 320 319 320 319 330 335 337 339 338 338 340 339 337
318 322 322 323 321 323 324 327 329 325 328 318 318 332 336 337 337 339 338 338 336 336
314 317 319 320 323 319 324 327 329 327 327 328 328 330 332 333 338 336 334 332 329 327
311 311 313 318 319 323 319 325 328 326 326 326 325 310 315 328 332 332 327 325 323 323
307 309 309 313 317 318 320 322 323 328 327 328 328 307 309 318 330 328 327 325 325 322
303 306 307 308 312 317 320 321 319 323 328 331 326 304 306 313 327 327 327 327 327 326
303 302 303 306 308 315 317 320 325 322 322 329 318 302 304 315 324 325 325 326 325 326
302 301 302 305 307 309 315 316 320 323 324 319 325 301 301 314 320 321 321 324 326 309
299 301 301 301 303 306 310 315 317 317 320 325 323 314 299 303 317 320 318 319 321 322
Wind_Speed
15 13 11 14 13 14 15 15 19 19 20 19 19 18 15 12 11 11 10 10 8 8
13 14 12 15 14 13 17 10 6 10 2 19 18 17 15 11 11 11 9 8 8 5
14 14 14 13 16 15 17 9 6 11 18 25 31 15 15 11 12 12 9 8 10 10
13 16 11 10 15 13 7 3 5 6 8 8 15 10 14 14 13 14 12 10 9 10
12 13 16 11 10 6 7 2 7 9 9 9 7 18 12 15 9 13 12 12 11 11
8 10 13 14 6 6 10 8 7 15 13 16 18 26 22 20 13 12 9 9 11 11
12 9 11 13 11 8 9 12 10 8 21 28 32 29 17 13 10 9 9 9 10 7
18 15 11 12 9 9 11 16 16 17 16 10 8 9 11 10 9 10 8 7 5 6
18 16 19 11 13 6 10 16 7 9 7 7 10 14 14 9 8 10 10 7 5 7
21 19 17 21 12 14 11 4 15 8 10 9 7 18 17 17 9 8 8 7 6 4
21 19 17 19 18 13 9 7 6 18 10 6 7 13 18 18 13 10 8 7 6 4
16 16 21 20 15 15 13 5 3 15 7 5 7 13 16 15 13 11 9 7 5 5
18 19 18 18 14 11 13 10 4 2 6 7 4 15 16 13 10 10 7 6 5 8
18 19 17 18 13 11 11 13 10 6 6 4 4 8 18 12 9 9 8 7 5 5
Wind_Direction
284 276 246 246 245 244 234 230 220 219 218 209 204 195 186 189 184 189 204 192 188 188
287 284 262 249 245 247 252 243 232 202 156 275 221 205 184 181 173 177 178 183 190 197
309 297 292 254 251 243 247 308 6 320 208 210 228 210 188 173 169 177 180 195 198 205
314 315 317 301 271 276 85 141 40 114 149 339 298 244 211 199 178 179 193 194 195 212
310 320 315 313 309 160 144 185 134 116 132 127 308 259 243 238 201 190 192 198 206 208
297 309 318 314 281 231 199 174 186 146 151 154 238 242 218 213 209 191 190 188 209 208
303 293 300 305 323 251 216 188 214 178 166 196 204 216 199 191 179 187 170 190 208 186
317 304 284 295 296 298 295 207 197 210 204 175 180 182 186 170 154 137 151 160 149 104
300 299 308 277 291 281 280 299 208 214 196 182 183 160 152 143 136 147 134 136 156 128
292 287 296 298 254 276 267 266 315 207 188 185 196 159 156 144 131 131 124 129 142 146
276 277 279 283 285 249 279 313 332 313 190 173 157 172 152 138 137 125 131 154 155 143
260 274 282 276 272 270 251 242 141 268 319 206 126 160 150 143 144 140 155 157 138 149
262 252 255 272 273 272 274 244 213 173 289 316 130 183 169 153 152 144 140 140 166 190
266 259 247 254 273 283 281 259 229 168 258 266 86 239 178 170 156 147 150 166 186 199